OE3UKW Weather Reports


time (UTC)temp
C
wind
direction
speed
KPH
gust
KPH
rain 1hr
cm
rain 24hr
cm
rain mn
cm
humidity
%
barometer
mb
20260506190112 19 172 22.5 40.2 0.00 0.00 0.00 48 1006.1
20260506185112 19 161 20.9 37.0 0.00 0.00 0.00 47 1006.0
20260506184112 20 169 24.1 38.6 0.00 0.00 0.00 46 1005.9
20260506183113 20 180 24.1 33.8 0.00 0.00 0.00 46 1005.6
20260506182112 20 173 24.1 32.2 0.00 0.00 0.00 46 1005.5
20260506181112 20 167 11.3 27.4 0.00 0.00 0.00 46 1005.6
20260506180112 20 147 22.5 32.2 0.00 0.00 0.00 45 1005.3
20260506175113 20 173 16.1 32.2 0.00 0.00 0.00 45 1005.3
20260506174112 21 178 19.3 32.2 0.00 0.00 0.00 44 1005.4
20260506173112 21 159 19.3 30.6 0.00 0.00 0.00 43 1005.3
20260506172112 21 170 29.0 40.2 0.00 0.00 0.00 42 1005.2
20260506171112 21 182 20.9 49.9 0.00 0.00 0.00 40 1005.3
20260506170112 22 180 19.3 30.6 0.00 0.00 0.00 39 1005.4
20260506165112 22 172 20.9 37.0 0.00 0.00 0.00 38 1005.5
20260506164112 22 156 19.3 35.4 0.00 0.00 0.00 37 1005.4
20260506163112 22 177 30.6 48.3 0.00 0.00 0.00 36 1005.5
20260506162112 23 164 33.8 53.1 0.00 0.00 0.00 36 1005.5
20260506161112 23 178 22.5 56.3 0.00 0.00 0.00 36 1005.7
20260506160112 23 177 37.0 48.3 0.00 0.00 0.00 35 1005.7
20260506155112 23 191 30.6 48.3 0.00 0.00 0.00 35 1005.8
20260506154112 23 177 32.2 40.2 0.00 0.00 0.00 35 1005.8
20260506153112 23 169 24.1 35.4 0.00 0.00 0.00 35 1005.9
20260506152112 23 181 20.9 37.0 0.00 0.00 0.00 34 1005.9
20260506151112 24 138 27.4 40.2 0.00 0.00 0.00 33 1005.9
20260506150112 24 182 24.1 41.8 0.00 0.00 0.00 32 1005.9
20260506145112 24 167 25.7 45.1 0.00 0.00 0.00 33 1005.9
20260506144111 24 140 29.0 49.9 0.00 0.00 0.00 33 1006.2
20260506143111 25 161 29.0 41.8 0.00 0.00 0.00 32 1006.2
20260506142112 25 136 32.2 45.1 0.00 0.00 0.00 32 1006.2
20260506141112 25 147 24.1 46.7 0.00 0.00 0.00 32 1006.3
20260506140112 25 129 25.7 46.7 0.00 0.00 0.00 31 1006.5
20260506135112 25 159 29.0 41.8 0.00 0.00 0.00 31 1006.7
20260506134112 23 152 29.0 41.8 0.00 0.00 0.00 33 1006.8
20260506133111 23 151 24.1 37.0 0.00 0.00 0.00 32 1006.8
20260506132111 23 160 20.9 37.0 0.00 0.00 0.00 31 1006.8
20260506131111 24 126 24.1 32.2 0.00 0.00 0.00 32 1007.0
20260506130111 24 157 27.4 46.7 0.00 0.00 0.00 31 1007.0
20260506125111 24 140 22.5 45.1 0.00 0.00 0.00 31 1007.2
20260506124112 24 171 22.5 37.0 0.00 0.00 0.00 31 1007.5
20260506123111 25 182 27.4 38.6 0.00 0.00 0.00 31 1007.7
20260506122111 25 132 29.0 43.5 0.00 0.00 0.00 32 1007.8
20260506121111 25 155 24.1 48.3 0.00 0.00 0.00 31 1007.8
20260506120111 24 167 25.7 38.6 0.00 0.00 0.00 34 1008.1
20260506115111 24 153 29.0 46.7 0.00 0.00 0.00 35 1008.0
20260506114111 23 175 24.1 40.2 0.00 0.00 0.00 34 1008.1
20260506113111 25 167 19.3 38.6 0.00 0.00 0.00 34 1008.2
20260506112111 25 160 20.9 37.0 0.00 0.00 0.00 36 1008.3
20260506111111 24 115 17.7 37.0 0.00 0.00 0.00 36 1008.5
20260506110111 24 184 22.5 38.6 0.00 0.00 0.00 36 1008.5
20260506105111 24 138 29.0 41.8 0.00 0.00 0.00 37 1008.5
20260506104111 24 171 19.3 32.2 0.00 0.00 0.00 37 1008.6
20260506103111 24 136 20.9 35.4 0.00 0.00 0.00 37 1008.8
20260506102111 24 140 25.7 35.4 0.00 0.00 0.00 36 1009.0
20260506101111 25 360 20.9 32.2 0.00 0.00 0.00 39 1009.0
20260506100111 24 153 16.1 32.2 0.00 0.00 0.00 38 1009.1
20260506095111 24 140 16.1 25.7 0.00 0.00 0.00 38 1009.1
20260506094111 23 149 19.3 24.1 0.00 0.00 0.00 38 1009.1
20260506093111 24 125 16.1 27.4 0.00 0.00 0.00 38 1009.3
20260506092111 24 130 11.3 17.7 0.00 0.00 0.00 38 1009.3
20260506091111 23 123 14.5 20.9 0.00 0.00 0.00 38 1009.3
20260506090110 23 134 14.5 19.3 0.00 0.00 0.00 36 1009.4
20260506085110 23 163 9.7 20.9 0.00 0.00 0.00 37 1009.4
20260506084111 23 130 3.2 19.3 0.00 0.00 0.00 36 1009.5
20260506083111 23 172 6.4 14.5 0.00 0.00 0.00 38 1009.6
20260506082110 22 132 3.2 11.3 0.00 0.00 0.00 38 1009.5
20260506081111 22 179 4.8 9.7 0.00 0.00 0.00 39 1009.7
20260506080111 22 190 6.4 14.5 0.00 0.00 0.00 39 1009.8
20260506073110 21 257 1.6 11.3 0.00 0.00 0.00 45 1009.7
20260506072110 20 255 8.0 14.5 0.00 0.00 0.00 46 1009.9
20260506071110 20 233 8.0 14.5 0.00 0.00 0.00 45 1009.9
20260506070110 21 226 11.3 17.7 0.00 0.00 0.00 45 1009.9
20260506062110 18 256 16.1 22.5 0.00 0.00 0.00 51 1009.9
20260506061110 18 232 11.3 24.1 0.00 0.00 0.00 52 1009.7
20260506060110 17 224 17.7 24.1 0.00 0.00 0.00 54 1010.0
20260506051110 13 120 3.2 6.4 0.00 0.00 0.00 67 1009.8
20260506050110 12 129 3.2 9.7 0.00 0.00 0.00 67 1009.7
20260506045110 12 136 4.8 6.4 0.00 0.00 0.00 67 1009.5
20260506044110 12 142 3.2 4.8 0.00 0.00 0.00 67 1009.5
20260506043110 12 142 1.6 4.8 0.00 0.00 0.00 68 1009.4
20260506042110 11 144 6.4 9.7 0.00 0.00 0.00 67 1009.3
20260506041110 11 124 0.0 3.2 0.00 0.00 0.00 67 1009.2
20260506040110 11 124 4.8 8.0 0.00 0.00 0.00 67 1009.0
20260506035110 11 124 6.4 8.0 0.00 0.00 0.00 67 1009.0
20260506034110 11 127 6.4 11.3 0.00 0.00 0.00 67 1008.9
20260506033110 11 135 8.0 12.9 0.00 0.00 0.00 67 1008.9
20260506032110 11 105 0.0 6.4 0.00 0.00 0.00 67 1008.9
20260506031110 11 135 1.6 4.8 0.00 0.00 0.00 67 1009.0
20260506030110 11 159 6.4 11.3 0.00 0.00 0.00 67 1009.1
20260506025110 11 194 3.2 4.8 0.00 0.00 0.00 67 1009.0
20260506024109 11 204 3.2 8.0 0.00 0.00 0.00 67 1009.1
20260506023110 11 213 4.8 6.4 0.00 0.00 0.00 67 1009.1
20260506022109 11 200 1.6 6.4 0.00 0.00 0.00 66 1009.0
20260506021109 11 197 4.8 8.0 0.00 0.00 0.00 65 1008.9
20260506020109 11 170 0.0 0.0 0.00 0.00 0.00 64 1008.9
20260506015109 11 169 1.6 8.0 0.00 0.00 0.00 64 1008.8
20260506014109 11 171 4.8 8.0 0.00 0.00 0.00 64 1008.9
20260506013109 12 163 1.6 8.0 0.00 0.00 0.00 63 1008.9
20260506012109 12 169 3.2 6.4 0.00 0.00 0.00 63 1008.9
20260506011109 12 169 4.8 8.0 0.00 0.00 0.00 62 1008.8
20260506005112 12 132 4.8 4.8 0.00 0.00 0.00 60 1008.6
20260506004111 13 132 0.0 0.0 0.00 0.00 0.00 60 1008.5
20260506003111 13 133 0.0 0.0 0.00 0.00 0.00 61 1008.4
20260506002111 13 133 0.0 0.0 0.00 0.00 0.00 61 1008.3
20260506001111 13 132 0.0 3.2 0.00 0.00 0.00 61 1008.3
20260506000111 13 150 4.8 6.4 0.00 0.00 0.00 60 1008.0
20260505235111 13 153 0.0 0.0 0.00 0.00 0.00 60 1008.0
20260505234111 13 153 0.0 0.0 0.00 0.00 0.00 60 1007.9
20260505233111 13 153 0.0 0.0 0.00 0.00 0.00 59 1007.8
20260505232111 13 155 3.2 4.8 0.00 0.00 0.00 59 1007.7
20260505231111 13 144 1.6 4.8 0.00 0.00 0.00 57 1007.7
20260505230111 13 144 3.2 6.4 0.00 0.00 0.00 57 1007.5
20260505225111 14 157 4.8 8.0 0.00 0.00 0.00 56 1007.5
20260505224111 14 146 4.8 8.0 0.00 0.00 0.00 55 1007.3
20260505223111 15 121 6.4 11.3 0.00 0.00 0.00 55 1007.3
20260505222111 15 123 8.0 14.5 0.00 0.00 0.00 54 1007.0
20260505221111 15 169 8.0 14.5 0.00 0.00 0.00 54 1007.1
20260505220111 15 167 11.3 16.1 0.00 0.00 0.00 54 1007.0
20260505215111 15 147 11.3 17.7 0.00 0.00 0.00 53 1006.9
20260505214111 15 156 12.9 20.9 0.00 0.00 0.00 52 1006.8
20260505213111 16 136 12.9 19.3 0.00 0.00 0.00 51 1006.8
20260505212111 16 162 16.1 22.5 0.00 0.00 0.00 51 1006.9
20260505211111 16 142 12.9 19.3 0.00 0.00 0.00 50 1006.8
20260505210111 16 144 14.5 19.3 0.00 0.00 0.00 50 1006.9
20260505205111 16 140 14.5 20.9 0.00 0.00 0.00 49 1006.7
20260505204111 16 140 16.1 20.9 0.00 0.00 0.00 49 1006.7
20260505203111 17 153 11.3 17.7 0.00 0.00 0.00 49 1006.5
20260505202111 17 160 16.1 24.1 0.00 0.00 0.00 48 1006.6
20260505201111 17 148 17.7 27.4 0.00 0.00 0.00 48 1006.5
20260505200111 17 148 19.3 27.4 0.00 0.00 0.00 47 1006.4
20260505195111 17 153 14.5 20.9 0.00 0.00 0.00 47 1006.4
20260505194111 17 158 17.7 24.1 0.00 0.00 0.00 46 1006.3
20260505193110 17 138 17.7 24.1 0.00 0.00 0.00 46 1006.4
20260505192111 18 140 16.1 25.7 0.00 0.00 0.00 45 1006.5
20260505191110 18 150 14.5 25.7 0.00 0.00 0.00 44 1006.5